User: anonymous   Login
Location: Christchurch
(43.5330°S, 172.6330°E)
Time: 04:41:47
(UTC+13:00)
Language:

Atlas Centaur 2 - Orbit

View from above orbital plane
View from above orbital plane
View from above satellite
View from above satellite

Ground track
Ground track

The orbit data is extracted from the following two-line orbital elements,

1   694U 63047A   19076.87801721  .00000575  00000-0  60944-4 0  9990
2   694  30.3563 249.9395 0586352 174.2955 186.4688 14.02444044772435
Epoch (UTC): 17 March 2019 21:04:20
Eccentricity: 0.0586352
inclination: 30.3563°
perigee height: 459 km
apogee height: 1311 km
right ascension of ascending node: 249.9395°
argument of perigee: 174.2955°
revolutions per day: 14.02444044
mean anomaly at epoch: 186.4688°
orbit number at epoch: 77243

The dashed part of the orbit path shows where the satellite is in the earth's shadow,  

DLR